星链-3874 (STARLINK-3874 )

导读

STARLINK-3874是美国SpaceX公司星链(Starlink)星座中的一颗低轨通信卫星,于2022年4月29日由猎鹰9号火箭发射入轨。它作为星链全球互联网组网的组成部分,运行在约550公里近地轨道,配备相控阵天线与推进系统,为全球用户,尤其是偏远地区,提供高速低延迟宽带互联网接入服务,助力构建覆盖全球的天基通信网络。

Basic Information
目录编号:
52365
目录名称:
STARLINK-3874
国际标识:
2022-045AL
轨道中心:
EARTH
卫星名称:
星链-3874
卫星全名:
星链-3874 (STARLINK-3874 )
卫星状态:
在轨 (已飞行1510 天)
发射日期:
2022-04-29 UTC
国别 :
美国 (US)
星等 :
--
Orbit Information
数据来源 国际轨道数据 AOE轨道数据
星历时间 2026-06-17T10:04:55+0800
14小时前
查看轨道信息
2026-06-17T01:00:00+0800
23小时前
查看轨道信息
半长轴 6917.896km 6917.894km
偏心率 0.000145 0.0001471
轨道倾角 53.162° 53.160°
近地点辐角 89.622° 82.956°
升交点赤经 102.816° 104.517°
平近点角 270.493° 20.532°
近地点 538.755km 538.739km
远地点 540.763km 540.775km
周期 95.438分钟 95.438分钟
每日圈数 15.088349 15.088356
Detailed Information
固有亮度:
5
最大亮度:
2.5
卫星平台:
Starlink v1.5
覆盖范围:
全球
运营商:
太空探索技术公司
运营商所在国:
美国
制造商(研发单位):
太空探索技术公司
制造商所在国:
美国
使用方式:
暂无
Satellite Introduction
星链(Starlink)计划是由太空探索技术公司(SpaceX)提出的一个巨型低轨卫星互联网星座项目,计划在2019年至2024年间在太空搭建由约1.2万颗卫星组成的“星链”网络,其中1584颗将部署在地球上空550千米处的近地轨道,并从2020年开始工作。该卫星仍在工作。
2D Orbit Map
3D Orbit Map
Orbit Altitude Analysis Chart
Orbit Inclination Analysis Chart
Orbit Comprehensive Analysis Chart
View Comprehensive Chart